Location: Home
(42.5358°N, 72.7383°W)
Time: 18:22:40
(UTC-04:00)

Explorer 11/Cluster Stage 4 - Pass Details

Date: 08 August 2024
Orbit: 464 x 1208 km, 28.8° (Epoch: 19 September)

Event Time Altitude Azimuth Distance (km) Brightness Sun altitude
Rises 03:42:53 0° 254° (WSW) 3,892 - -20.1°
Reaches altitude 10° 03:46:06 10° 242° (WSW) 3,020 - -19.7°
Exits shadow 03:51:28 25° 197° (SSW) 2,202 8.3 -19.0°
Maximum altitude 03:52:02 25° 191° (S) 2,197 8.4 -19.0°
Drops below altitude 10° 03:58:12 10° 140° (SE) 3,140 9.6 -18.2°
Sets 04:01:37 0° 128° (SE) 4,077 10.4 -17.7°
